Simultaneous Nadir Overpasses (SNOs) Predictions

Prediction of SNOs between NOAA-20 and METOP-B Satellite Orbit:

Table of predicted SNOs for the next 14.0 days since TLE Epoch: 11/9/2019
Index Date (NOAA-20) Time (NOAA-20) Lat,Lon (NOAA-20) SZA (NOAA-20 ) Date (METOP-B) Time (METOP-B) Lat,Lon (METOP-B) SZA (METOP-B ) Distance(km) Time Diff (sec)
1 11/13/2019 01:34:58 73.50, 146.37 91.33 11/13/2019 01:36:04 73.40, 149.24 91.17 91.33 66
2 11/13/2019 02:25:40 -73.40, -46.09 88.77 11/13/2019 02:26:47 -73.35, -43.56 88.88 80.52 67
3 11/13/2019 03:16:21 73.15, 121.78 90.98 11/13/2019 03:17:31 73.13, 123.30 90.93 49.19 70
4 11/13/2019 04:07:04 -73.10, -70.81 89.06 11/13/2019 04:08:15 -73.03, -69.61 89.17 39.80 71
5 11/13/2019 04:57:46 72.90, 96.93 90.74 11/13/2019 04:58:59 72.81, 97.27 90.64 15.00 73
6 11/13/2019 05:48:28 -72.81, -95.55 89.35 11/13/2019 05:49:41 -72.81, -95.41 89.36 4.37 73
7 11/13/2019 06:39:13 72.76, 71.87 90.61 11/13/2019 06:40:22 72.74, 71.79 90.59 3.15 69
8 11/13/2019 07:29:57 -72.76,-120.83 89.38 11/13/2019 07:31:03 -72.79,-120.79 89.36 3.20 66
9 11/13/2019 08:20:43 72.76, 46.48 90.63 11/13/2019 08:21:43 72.77, 46.51 90.64 1.67 60
10 11/13/2019 09:11:27 -72.77,-146.21 89.36 11/13/2019 09:12:25 -72.77,-146.17 89.36 1.27 58
11 11/13/2019 10:02:13 72.77, 21.10 90.65 11/13/2019 10:03:05 72.75, 21.13 90.64 1.65 52
12 11/13/2019 10:52:57 -72.77,-171.59 89.34 11/13/2019 10:53:47 -72.75,-171.55 89.36 2.68 50
13 11/13/2019 11:43:42 72.72, -4.18 90.63 11/13/2019 11:44:27 72.74, -4.25 90.64 2.82 45
14 11/13/2019 12:34:26 -72.72, 163.13 89.37 11/13/2019 12:35:09 -72.73, 163.07 89.36 2.04 43
15 11/13/2019 13:25:12 72.72, -29.56 90.65 11/13/2019 13:25:49 72.72, -29.63 90.64 2.32 37
16 11/13/2019 14:15:55 -72.73, 137.74 89.34 11/13/2019 14:16:30 -72.71, 137.69 89.36 2.67 35
17 11/13/2019 15:06:41 72.73, -54.95 90.67 11/13/2019 15:07:09 72.75, -54.90 90.69 2.51 28
18 11/13/2019 15:57:25 -72.73, 112.36 89.32 11/13/2019 15:57:51 -72.74, 112.41 89.31 2.09 26
19 11/13/2019 16:48:11 72.73, -80.33 90.70 11/13/2019 16:48:31 72.73, -80.28 90.69 1.83 20
20 11/13/2019 17:38:55 -72.74, 86.97 89.29 11/13/2019 17:39:13 -72.72, 87.03 89.31 2.63 18
21 11/13/2019 18:29:40 72.69,-105.61 90.67 11/13/2019 18:29:53 72.71,-105.66 90.69 2.79 13
22 11/13/2019 19:20:24 -72.69, 61.69 89.32 11/13/2019 19:20:35 -72.70, 61.66 89.31 1.80 11
23 11/13/2019 20:11:10 72.69,-131.00 90.69 11/13/2019 20:11:15 72.69,-131.04 90.69 1.51 5
24 11/13/2019 21:01:54 -72.70, 36.31 89.30 11/13/2019 21:01:57 -72.69, 36.28 89.31 1.79 3
25 11/13/2019 21:52:40 72.70,-156.38 90.72 11/13/2019 21:52:37 72.67,-156.42 90.69 3.34 3
26 11/13/2019 22:43:24 -72.70, 10.93 89.28 11/13/2019 22:43:18 -72.72, 11.00 89.26 2.95 6
27 11/13/2019 23:34:10 72.70, 178.23 90.74 11/13/2019 23:33:58 72.70, 178.30 90.74 2.35 12
28 11/14/2019 00:24:54 -72.71, -14.46 89.25 11/14/2019 00:24:40 -72.70, -14.38 89.26 2.88 14
29 11/14/2019 01:15:39 72.66, 152.95 90.71 11/14/2019 01:15:20 72.68, 152.93 90.74 3.01 19
30 11/14/2019 02:06:23 -72.66, -39.74 89.28 11/14/2019 02:06:02 -72.68, -39.76 89.26 1.96 21
31 11/14/2019 02:57:09 72.66, 127.57 90.73 11/14/2019 02:56:42 72.66, 127.55 90.74 0.81 27
32 11/14/2019 03:47:53 -72.67, -65.12 89.26 11/14/2019 03:47:24 -72.66, -65.14 89.26 0.92 29
33 11/14/2019 04:38:39 72.67, 102.19 90.76 11/14/2019 04:38:04 72.64, 102.17 90.74 2.58 35
34 11/14/2019 05:29:23 -72.67, -90.51 89.23 11/14/2019 05:28:46 -72.64, -90.52 89.26 3.48 37
35 11/14/2019 06:20:09 72.67, 76.80 90.78 11/14/2019 06:19:25 72.68, 76.89 90.79 3.04 44
36 11/14/2019 07:10:53 -72.68,-115.89 89.21 11/14/2019 07:10:07 -72.67,-115.79 89.21 3.37 46
37 11/14/2019 08:01:38 72.63, 51.52 90.75 11/14/2019 08:00:47 72.66, 51.51 90.79 3.45 51
38 11/14/2019 08:52:22 -72.63,-141.17 89.24 11/14/2019 08:51:29 -72.65,-141.17 89.21 2.46 53
39 11/14/2019 09:43:08 72.63, 26.14 90.77 11/14/2019 09:42:09 72.64, 26.13 90.79 0.76 59
40 11/14/2019 10:33:52 -72.64,-166.56 89.22 11/14/2019 10:32:51 -72.63,-166.55 89.21 0.31 61
41 11/14/2019 11:24:38 72.64, 0.75 90.80 11/14/2019 11:23:31 72.62, 0.75 90.79 1.94 67
42 11/14/2019 12:15:22 -72.64, 168.06 89.19 11/14/2019 12:14:13 -72.61, 168.07 89.21 2.91 69
43 11/14/2019 13:06:07 72.59, -24.53 90.77 11/14/2019 13:04:53 72.60, -24.63 90.79 3.38 74
44 11/14/2019 13:56:50 -72.54, 142.88 89.28 11/14/2019 13:55:36 -72.54, 142.59 89.26 9.75 74
45 11/14/2019 14:47:32 72.34, -49.40 90.53 11/14/2019 14:46:20 72.32, -50.52 90.54 37.63 72
46 11/14/2019 15:38:14 -72.24, 118.10 89.57 11/14/2019 15:37:03 -72.27, 116.70 89.51 47.52 71
47 11/14/2019 16:28:55 71.99, -74.09 90.18 11/14/2019 16:27:48 72.00, -76.49 90.25 82.35 67
48 11/14/2019 17:19:38 -71.94, 93.31 89.86 11/14/2019 17:18:31 -71.94, 90.74 89.80 88.56 67




NCC Satellite Simultaneous Nadir Overpasses (SNOs) Prediction Service
